Wind_Speed
9 9 9 9 9 9 9 10 10 10 10 10 10 10 10 10 10 10 9 9 9 9 8 9 9 9 10 11 11 11 11 11 11 10 11 13 13 14 14 15 16 16 17 17
10 10 10 11 11 10 10 11 11 11 11 10 10 10 10 10 10 9 10 9 9 8 8 8 9 9 10 10 11 11 11 11 10 10 12 13 13 14 15 15 16 17 16 16
11 11 11 11 11 11 11 11 11 11 12 11 11 10 10 9 9 9 9 9 9 9 9 8 9 9 10 10 11 11 11 11 11 11 12 13 14 14 15 15 16 16 16 15
12 12 12 12 12 12 12 11 12 12 11 11 10 10 9 9 9 9 9 9 9 9 9 9 9 10 11 11 11 11 11 11 11 11 12 13 14 14 14 15 15 15 15 15
13 13 13 13 12 12 12 12 12 12 11 11 10 10 10 10 10 10 10 10 10 10 10 10 10 10 11 11 11 11 11 11 11 12 12 13 13 13 14 14 14 14 14 16
14 14 14 14 13 12 12 13 12 12 11 11 10 11 11 12 11 11 11 11 10 11 11 11 11 11 11 12 12 12 11 11 12 12 12 12 12 13 13 13 13 14 14 16
16 15 15 15 14 13 13 14 13 13 13 13 12 12 13 12 12 12 12 11 12 11 11 12 12 12 12 12 12 12 12 12 13 13 12 12 13 13 13 13 13 14 15 16
17 16 17 16 15 15 15 15 14 14 14 15 14 14 14 14 14 13 12 12 12 12 12 12 12 13 13 13 13 13 12 12 12 12 12 12 13 12 11 12 13 14 16 17
19 19 18 18 17 17 16 16 16 16 15 15 16 15 15 15 14 14 13 13 13 13 13 13 13 14 14 14 13 13 12 12 12 13 12 12 12 11 12 12 13 14 16 18
20 20 20 19 19 19 18 18 18 18 17 17 16 16 15 15 15 15 14 14 14 14 14 14 14 14 14 14 14 14 13 13 13 12 12 12 12 12 12 13 14 15 17 18
22 22 22 22 22 21 20 20 19 19 19 19 18 18 18 17 16 16 15 15 15 15 16 15 15 15 14 14 14 14 13 13 13 12 12 12 12 12 13 14 14 16 17 18
24 24 24 23 23 23 22 21 21 21 21 20 20 20 19 18 17 16 16 16 16 16 17 16 15 15 14 15 15 14 13 13 13 13 12 12 13 13 14 14 15 16 18 18
25 25 25 24 24 23 23 23 23 22 22 22 21 21 20 19 19 18 17 17 17 17 17 17 16 15 15 15 14 14 13 13 13 13 13 13 13 13 14 15 16 16 17 18
25 25 25 25 25 24 24 24 24 23 23 22 22 21 20 20 19 18 18 18 18 18 17 17 16 15 14 15 14 14 14 13 13 13 14 14 14 14 15 15 15 16 17 18
25 26 26 26 26 25 24 24 23 24 23 23 22 22 21 21 20 19 19 18 18 17 17 16 15 14 14 15 14 14 14 14 14 14 14 14 14 15 15 15 15 16 17 18
25 25 25 25 25 24 24 23 23 23 24 23 23 22 22 21 21 20 20 19 18 17 16 15 14 14 14 15 14 14 14 14 15 15 15 14 14 15 15 16 16 17 18 18
25 25 24 25 25 24 23 23 23 23 23 23 23 23 22 21 21 21 20 19 18 17 16 15 15 15 15 15 15 14 14 15 15 15 16 15 15 15 16 17 17 17 17 18
26 26 25 25 25 24 24 23 23 23 23 23 23 23 22 21 21 20 19 19 17 17 16 16 16 16 15 15 15 15 15 15 16 16 16 15 16 16 17 17 17 17 17 18
27 26 26 25 25 25 25 25 25 24 24 23 23 22 21 21 20 19 18 18 17 17 16 16 16 16 16 16 16 16 16 16 16 16 17 17 17 17 17 17 16 16 16 16
26 26 26 26 26 25 25 24 24 23 22 22 22 22 22 22 21 19 19 18 18 17 17 16 16 16 17 16 16 16 16 16 16 17 17 17 17 17 16 16 15 16 16 15
24 24 25 25 25 25 24 24 24 23 22 22 22 22 21 21 21 20 20 19 18 18 17 16 16 16 16 16 16 16 16 16 16 17 16 16 16 16 15 15 15 15 15 15
23 23 23 23 23 23 22 22 22 22 21 21 21 21 21 20 20 20 19 19 18 18 18 17 17 17 16 16 16 16 16 15 15 15 15 15 15 14 14 14 14 14 15 15
22 22 22 23 22 22 22 22 22 21 21 21 21 21 20 20 20 20 19 19 19 18 17 17 17 18 17 17 16 16 15 15 15 15 14 14 14 14 13 13 13 13 14 14
20 20 21 22 22 22 22 22 22 22 21 21 21 20 20 20 20 20 20 19 18 17 17 17 17 17 16 16 16 15 15 15 15 14 14 14 14 13 13 12 12 13 13 14
21 21 22 22 22 23 23 23 22 22 21 21 21 20 20 20 20 20 19 18 18 18 17 17 17 17 16 16 16 15 16 16 15 15 15 14 13 13 12 12 12 13 14 14
21 22 22 22 23 22 22 22 22 22 21 21 21 21 21 21 20 20 20 19 19 19 19 18 18 17 17 16 16 16 16 16 15 15 15 14 13 13 12 12 12 13 13 13
21 21 22 22 22 22 22 22 23 22 22 21 21 21 22 22 21 20 20 20 20 20 20 19 19 18 18 18 17 17 17 16 15 15 15 14 13 12 12 12 12 12 12 13
Wind_Direction
274 280 288 292 294 298 302 300 297 294 292 292 291 293 295 298 301 303 305 306 306 308 301 294 296 296 297 296 296 298 299 302 304 307 310 310 310 309 310 311 311 311 314 317
281 283 289 292 295 296 298 296 294 295 296 295 293 292 293 295 299 301 303 305 304 302 303 298 298 295 300 301 299 298 300 303 304 306 311 314 313 312 313 314 314 313 317 319
280 283 287 289 294 296 298 297 296 295 299 298 296 291 293 295 300 304 304 306 304 303 306 302 299 299 302 303 302 300 299 300 299 303 309 314 316 314 312 314 318 320 323 323
276 279 283 288 292 294 296 297 297 294 295 297 300 293 290 292 296 303 305 306 305 306 308 306 305 303 304 303 302 301 301 300 298 301 307 311 315 316 315 315 317 322 326 326
272 274 279 285 291 292 294 293 295 295 296 297 297 296 294 294 297 301 302 305 304 302 305 306 307 305 302 303 301 301 302 301 302 305 309 311 313 315 316 319 322 324 327 329
267 269 275 281 284 286 289 289 289 288 292 292 289 291 293 292 292 294 297 301 302 301 299 301 303 304 303 303 303 303 303 301 302 305 308 311 311 312 316 322 324 326 329 329
263 265 270 277 281 282 281 286 287 282 283 285 284 286 290 289 287 289 292 294 296 297 298 299 300 301 304 302 303 303 304 304 304 304 306 308 309 310 316 322 326 327 328 331
261 262 266 274 277 278 279 282 284 283 280 278 279 282 287 288 287 288 288 290 292 294 296 298 297 298 301 301 301 301 301 301 303 303 302 304 304 309 318 324 326 326 327 330
261 261 265 269 271 275 278 279 281 280 281 280 280 281 283 285 285 285 284 288 293 295 296 297 296 297 299 299 299 299 298 297 299 301 301 303 305 311 316 319 323 326 326 328
260 260 263 268 270 273 275 275 278 279 278 280 279 278 281 283 284 284 283 287 291 295 297 298 294 292 294 295 297 297 295 295 297 300 302 303 305 311 315 317 320 324 326 328
259 260 264 267 270 272 273 273 273 275 277 278 278 278 279 281 282 281 283 287 290 293 295 296 293 291 292 292 293 294 292 293 294 296 300 301 304 309 314 316 318 322 324 326
259 262 265 268 270 272 272 271 271 273 274 275 275 276 277 279 280 280 281 284 288 290 292 293 292 290 289 290 291 290 289 291 294 296 298 299 302 309 314 315 316 317 320 323
260 261 264 266 268 269 270 269 270 272 274 273 273 273 274 276 277 278 282 283 287 289 291 292 290 288 285 286 289 290 290 290 291 292 295 297 301 306 310 312 314 314 316 321
261 262 264 264 265 266 268 268 267 269 270 270 271 272 273 274 274 277 279 281 283 287 288 289 289 286 284 285 286 288 289 289 289 290 293 295 299 303 306 310 312 312 315 319
261 261 263 264 264 264 266 266 266 267 268 268 268 269 271 272 273 274 276 279 281 284 286 286 286 284 283 282 282 284 286 288 289 290 292 292 296 300 303 307 309 312 314 317
261 262 262 263 264 264 265 265 266 267 267 267 267 266 266 267 269 272 274 276 278 281 282 281 280 281 281 279 280 282 285 287 289 291 293 292 293 297 301 305 307 309 312 314
261 262 262 262 264 263 264 265 267 268 267 267 267 266 265 266 268 270 271 272 274 276 276 276 276 278 279 279 279 280 284 286 289 292 295 292 293 296 300 302 304 305 309 313
260 260 262 262 261 261 262 265 267 267 268 268 267 266 265 266 267 268 269 269 269 270 269 271 274 275 275 277 277 279 283 286 289 292 294 293 295 297 299 300 302 303 307 311
260 260 260 261 261 262 263 265 264 264 265 267 267 263 263 265 266 266 266 267 267 267 266 268 273 274 274 275 276 279 283 287 290 291 294 293 294 295 297 298 299 301 305 311
260 260 260 260 261 263 263 263 261 262 264 265 263 262 262 262 263 264 264 265 266 265 266 268 272 275 274 276 278 281 284 287 289 292 292 291 292 293 295 296 297 299 303 308
258 258 258 259 259 259 259 259 258 259 260 261 263 262 261 261 260 260 261 263 262 263 264 267 271 274 276 278 279 282 284 287 290 293 292 291 290 291 293 294 296 299 302 304
256 256 256 256 256 255 257 256 256 256 258 259 260 259 258 259 259 259 260 260 259 259 263 266 268 272 276 278 278 280 283 287 291 293 292 291 289 290 292 294 294 296 299 301
254 255 254 254 255 256 257 256 256 257 258 257 257 256 256 256 258 259 260 257 256 258 262 266 269 273 276 277 278 277 280 285 291 291 290 289 288 290 293 294 295 297 300 301
253 254 254 254 253 254 254 254 256 257 257 256 256 256 255 255 256 257 256 256 255 258 262 265 269 273 276 278 277 276 280 284 286 286 287 288 287 287 291 294 298 298 298 302
258 258 259 257 256 256 256 257 257 256 257 257 256 256 256 254 253 253 255 254 254 258 262 265 268 270 272 275 277 277 280 282 281 282 286 287 283 284 286 289 294 297 298 302
258 258 259 259 258 258 257 258 257 256 257 257 257 257 256 252 251 253 254 254 256 259 263 264 264 266 268 272 275 277 278 278 277 281 285 285 282 280 281 284 289 294 298 303
258 259 260 259 257 256 257 257 255 255 255 254 255 256 255 254 255 255 256 257 259 261 262 261 261 263 266 269 272 274 274 273 273 275 278 278 276 277 280 284 288 292 298 303
Height
5812 5811 5811 5810 5809 5808 5806 5805 5804 5803 5801 5800 5799 5798 5797 5796 5794 5793 5792 5791 5790 5789 5788 5786 5785 5784 5783 5782 5780 5779 5777 5776 5774 5773 5771 5769 5767 5765 5762 5760 5758 5756 5753 5750
5809 5808 5808 5807 5806 5804 5803 5802 5801 5799 5798 5797 5796 5795 5794 5793 5792 5791 5790 5789 5788 5787 5785 5784 5783 5782 5780 5779 5777 5776 5775 5773 5771 5770 5768 5766 5764 5761 5759 5757 5755 5752 5749 5747
5806 5805 5804 5804 5803 5802 5800 5799 5798 5796 5796 5794 5793 5792 5791 5791 5790 5789 5788 5787 5786 5784 5783 5782 5781 5779 5778 5776 5775 5773 5772 5770 5769 5767 5765 5763 5761 5758 5756 5754 5752 5749 5746 5744
5803 5803 5802 5803 5800 5799 5797 5796 5794 5793 5792 5791 5790 5790 5789 5788 5787 5787 5785 5784 5783 5782 5781 5780 5778 5777 5775 5773 5772 5770 5769 5767 5766 5764 5763 5761 5758 5756 5754 5751 5749 5746 5744 5741
5799 5799 5798 5797 5796 5795 5794 5793 5791 5790 5789 5788 5788 5787 5786 5786 5785 5784 5783 5782 5781 5780 5779 5777 5776 5774 5772 5771 5769 5767 5766 5764 5763 5762 5760 5758 5756 5754 5751 5749 5746 5744 5741 5738
5795 5795 5794 5794 5793 5792 5792 5790 5789 5787 5787 5786 5786 5785 5785 5783 5782 5781 5780 5779 5778 5777 5776 5774 5773 5771 5770 5768 5766 5765 5763 5761 5760 5758 5757 5755 5753 5751 5749 5746 5744 5741 5738 5735
5790 5790 5789 5789 5788 5788 5789 5788 5785 5784 5783 5783 5782 5782 5782 5780 5779 5778 5777 5776 5775 5774 5773 5771 5770 5768 5767 5765 5763 5762 5760 5758 5757 5755 5754 5752 5750 5748 5746 5744 5741 5738 5736 5733
5785 5785 5786 5784 5784 5784 5784 5782 5781 5780 5780 5779 5779 5778 5777 5776 5776 5775 5773 5772 5771 5770 5769 5768 5766 5765 5763 5762 5760 5758 5757 5755 5754 5752 5751 5749 5747 5745 5743 5741 5739 5736 5733 5730
5779 5781 5779 5778 5778 5778 5778 5777 5777 5776 5775 5775 5774 5774 5773 5773 5772 5771 5770 5769 5768 5767 5765 5764 5763 5761 5760 5758 5757 5755 5753 5752 5750 5749 5747 5746 5744 5742 5740 5738 5736 5733 5730 5726
5772 5772 5773 5772 5772 5772 5772 5772 5771 5771 5771 5770 5770 5770 5769 5768 5767 5767 5766 5765 5764 5763 5761 5760 5758 5757 5756 5754 5753 5751 5750 5748 5747 5746 5744 5742 5741 5739 5737 5735 5733 5730 5727 5723
5765 5765 5766 5766 5766 5766 5765 5765 5765 5765 5765 5765 5765 5764 5764 5763 5762 5762 5761 5760 5759 5758 5757 5755 5754 5753 5751 5750 5749 5747 5746 5745 5743 5742 5741 5739 5738 5736 5734 5732 5729 5727 5723 5720
5758 5758 5758 5759 5759 5759 5759 5759 5759 5759 5759 5759 5759 5758 5758 5758 5757 5757 5756 5755 5754 5753 5752 5751 5749 5748 5747 5746 5744 5743 5742 5741 5739 5738 5737 5736 5734 5732 5730 5728 5726 5723 5720 5717
5749 5750 5750 5751 5751 5751 5752 5752 5752 5752 5752 5752 5752 5752 5752 5751 5751 5751 5750 5750 5749 5748 5747 5746 5744 5743 5742 5741 5740 5739 5737 5737 5735 5734 5733 5732 5730 5728 5727 5724 5722 5719 5716 5713
5741 5741 5742 5743 5743 5743 5744 5744 5745 5745 5745 5745 5745 5745 5745 5745 5745 5745 5745 5744 5744 5743 5742 5740 5739 5738 5737 5736 5735 5734 5733 5732 5731 5730 5729 5727 5726 5724 5722 5720 5717 5715 5712 5709
5732 5733 5733 5734 5735 5735 5736 5736 5737 5737 5737 5737 5738 5738 5738 5738 5738 5739 5739 5738 5737 5737 5736 5735 5734 5733 5732 5731 5730 5729 5728 5728 5726 5725 5724 5723 5721 5719 5717 5715 5713 5710 5708 5705
5724 5724 5725 5726 5727 5727 5728 5728 5729 5729 5730 5730 5730 5730 5730 5731 5731 5732 5732 5732 5731 5731 5730 5729 5728 5728 5727 5726 5725 5725 5724 5723 5722 5721 5719 5718 5716 5715 5713 5711 5709 5706 5704 5701
5716 5717 5717 5718 5719 5719 5720 5721 5721 5721 5722 5722 5723 5723 5723 5724 5724 5725 5725 5725 5725 5725 5724 5724 5723 5722 5722 5721 5721 5720 5719 5718 5717 5715 5714 5713 5711 5710 5708 5706 5704 5702 5700 5697
5707 5709 5709 5710 5711 5712 5713 5713 5714 5714 5714 5715 5715 5716 5716 5717 5717 5718 5718 5718 5719 5719 5718 5718 5718 5717 5717 5716 5716 5715 5714 5713 5712 5710 5709 5707 5706 5704 5703 5701 5699 5697 5695 5693
5699 5700 5701 5702 5703 5704 5705 5705 5706 5707 5707 5708 5708 5709 5709 5710 5710 5711 5711 5712 5712 5713 5713 5712 5712 5712 5711 5711 5710 5710 5709 5708 5707 5705 5704 5702 5700 5699 5697 5695 5693 5692 5690 5688
5690 5691 5692 5694 5695 5696 5696 5697 5698 5699 5700 5700 5701 5701 5702 5703 5704 5704 5705 5706 5706 5706 5707 5706 5706 5706 5706 5706 5705 5704 5703 5702 5701 5700 5698 5697 5695 5693 5692 5690 5688 5687 5685 5683
5682 5683 5684 5685 5686 5687 5688 5689 5690 5691 5692 5693 5693 5694 5695 5696 5697 5698 5699 5700 5700 5700 5701 5701 5701 5701 5701 5700 5700 5699 5698 5697 5695 5694 5692 5691 5689 5688 5686 5685 5683 5682 5680 5678
5674 5675 5676 5677 5678 5679 5680 5681 5682 5683 5684 5686 5686 5687 5688 5689 5690 5691 5692 5694 5694 5694 5695 5695 5695 5695 5695 5695 5694 5693 5692 5691 5690 5688 5687 5685 5684 5682 5681 5680 5679 5677 5675 5673
5667 5668 5669 5670 5671 5672 5673 5674 5675 5676 5677 5678 5679 5680 5681 5682 5683 5685 5686 5687 5688 5688 5689 5689 5690 5690 5689 5689 5688 5688 5687 5686 5684 5683 5682 5681 5679 5678 5676 5675 5674 5672 5671 5669
5659 5660 5661 5662 5664 5665 5666 5667 5668 5669 5670 5671 5672 5673 5675 5676 5677 5678 5679 5680 5682 5682 5683 5683 5684 5684 5684 5683 5682 5682 5681 5681 5679 5678 5677 5676 5675 5673 5672 5671 5669 5668 5666 5664
5652 5653 5654 5655 5656 5657 5659 5660 5661 5662 5663 5664 5665 5667 5668 5669 5671 5672 5673 5674 5675 5676 5677 5678 5678 5678 5678 5677 5677 5676 5676 5675 5674 5673 5673 5671 5670 5669 5668 5666 5665 5663 5662 5660
5645 5646 5647 5648 5649 5650 5651 5652 5653 5654 5656 5657 5658 5660 5661 5662 5664 5665 5667 5668 5669 5670 5670 5671 5672 5672 5672 5672 5671 5671 5670 5670 5669 5668 5668 5667 5666 5664 5663 5662 5661 5659 5657 5656
5638 5639 5640 5640 5641 5642 5643 5645 5646 5647 5648 5650 5651 5653 5654 5656 5657 5658 5660 5661 5662 5663 5664 5664 5665 5666 5666 5666 5666 5665 5665 5664 5664 5663 5663 5662 5661 5660 5659 5658 5656 5655 5653 5651